Flag for Turkey Weather past 2 weeks in Gaziantep, Turkey

Now
79 °F

Clear.


Feels Like: 80 °F
Forecast: 73 / 98 °F
Wind: 8 mph from North

Location: Gaziantep Airport

Current Time: Jul 30, 2014 at 4:30:43 AM

Latest Report: Jul 30, 2014 at 3:50 AM


Visibility: 10 mi

Pressure: 29.68 "Hg

Humidity: 51%

Dew point: 59 °F

Location of GaziantepLocation

Historic Weather in Gaziantep — Graph

°F

Gaziantep temperature yesterday

Maximum temperature yesterday: 100 °F (at 4:20 PM)
Minimum temperature yesterday: 79 °F (at 3:50 AM)
Average temperature yesterday: 88 °F

Past Weeks' High & Low Weather Summary

 TemperatureHumidityPressure
High100 °F (Jul 15, 3:20 PM)83% (Jul 26, 6:20 AM)29.86 "Hg (Jul 26, 6:20 AM)
Low64 °F (Jul 27, 5:20 AM)11% (Jul 29, 3:20 PM)29.56 "Hg (Jul 20, 2:50 PM)
Average84 °F41%29.71 "Hg
* Reported Jul 15 3:20 AM — Jul 30 3:20 AM, Gaziantep, Weather by CustomWeather, © 2014

Note: Actual official high and low records may vary slightly from our data, if they occured in-between our weather recording intervals... More about our weather records

Advertising

Gaziantep weather history for previous 24 hours

 ConditionsComfort  
Time TempWeatherWind HumidityBarometerVisibility
3:20 AM
Jul 30
81 °FPassing clouds.7 mph48%29.68 "HgN/A
2:50 AM77 °FPassing clouds.3 mph54%29.71 "HgN/A
2:20 AM79 °FPassing clouds.5 mph48%29.71 "HgN/A
1:50 AM79 °FClear.5 mph51%29.71 "Hg10 mi
1:20 AM77 °FClear.3 mph54%29.71 "Hg10 mi
12:50 AM81 °FClear.No wind45%29.71 "Hg10 mi
12:20 AM81 °FClear.1 mph45%29.71 "Hg10 mi
11:50 PM
Jul 29
82 °FPassing clouds.7 mph42%29.71 "HgN/A
11:20 PM86 °FPassing clouds.15 mph38%29.71 "HgN/A
10:50 PM82 °FClear.14 mph45%29.71 "Hg10 mi
10:20 PM82 °FClear.14 mph45%29.71 "Hg10 mi
9:50 PM84 °FClear.13 mph43%29.71 "Hg10 mi
9:20 PM84 °FPassing clouds.8 mph43%29.71 "HgN/A
8:50 PM86 °FPassing clouds.10 mph40%29.71 "HgN/A
8:20 PM88 °FSunny.16 mph33%29.68 "Hg10 mi
7:50 PM90 °FSunny.16 mph33%29.68 "Hg10 mi
7:20 PM90 °FSunny.20 mph33%29.68 "Hg10 mi
6:50 PM93 °FSunny.18 mph28%29.68 "Hg10 mi
6:20 PM93 °FSunny.20 mph30%29.68 "Hg10 mi
5:50 PM97 °FSunny.17 mph25%29.68 "Hg10 mi
5:20 PM99 °FSunny.5 mph21%29.68 "Hg10 mi
4:50 PM99 °FPassing clouds.9 mph13%29.68 "HgN/A
4:20 PM100 °FPassing clouds.7 mph12%29.68 "HgN/A
3:50 PM99 °FPassing clouds.8 mph11%29.71 "HgN/A
3:20 PM99 °FSunny.6 mph11%29.71 "Hg10 mi
2:50 PM99 °FPassing clouds.8 mph12%29.71 "HgN/A
2:20 PM99 °FPassing clouds.8 mph12%29.71 "HgN/A
1:50 PM99 °FPassing clouds.7 mph12%29.74 "HgN/A
1:20 PM97 °FPassing clouds.13 mph13%29.74 "HgN/A
12:50 PM97 °FPassing clouds.12 mph13%29.74 "HgN/A
12:20 PM95 °FPassing clouds.12 mph14%29.74 "HgN/A
11:50 AM95 °FPassing clouds.14 mph15%29.74 "HgN/A
11:20 AM93 °FPassing clouds.12 mph16%29.77 "HgN/A
10:50 AM93 °FPassing clouds.12 mph17%29.77 "HgN/A
10:20 AM91 °FPassing clouds.12 mph18%29.77 "HgN/A
9:50 AM90 °FPassing clouds.12 mph20%29.77 "HgN/A
9:20 AM90 °FSunny.13 mph20%29.77 "Hg10 mi
8:50 AM88 °FPassing clouds.13 mph25%29.77 "HgN/A
8:20 AM86 °FPassing clouds.12 mph29%29.77 "HgN/A
7:50 AM84 °FSunny.12 mph31%29.77 "Hg10 mi
7:20 AM82 °FSunny.14 mph37%29.77 "Hg10 mi
6:50 AM81 °FSunny.10 mph42%29.77 "Hg10 mi
6:20 AM79 °FClear.10 mph45%29.77 "Hg10 mi
5:50 AM79 °FClear.10 mph45%29.77 "Hg10 mi
5:20 AM79 °FClear.12 mph45%29.77 "Hg10 mi
4:50 AM79 °FClear.14 mph45%29.77 "Hg10 mi
4:20 AM79 °FClear.15 mph48%29.77 "Hg10 mi
Weather by CustomWeather, © 2014

See weather overviewHow to use our weather pages